Regional Weather Roundup
Issued by NWS

Home | Current Version | Previous Version | Graphics & Text | Print | Product List | Glossary On
Versions: 1 2 3 4 5 6 7 8 9 10 11 12 13 14 15 16 17 18 19 20 21 22 23 24 25 26 27 28 29 30 31 32 33 34 35 36 37 38 39 40 41 42 43 44 45 46 47 48 49 50
000
ASUS45 KBOU 020007
RWRCO

WEATHER ROUNDUP FOR COLORADO
NATIONAL WEATHER SERVICE DENVER/BOULDER CO
600 PM MDT TUE SEP 01 2015

NOTE: "FAIR" INDICATES FEW OR NO CLOUDS BELOW 12000 FEET WITH NO
SIGNIFICANT WEATHER AND/OR OBSTRUCTIONS TO VISIBILITY.

COZ001>005-013-030-031-020100-
...NORTHWEST COLORADO...

CITY           SKY/WX    TMP DP  RH WIND       PRES   REMARKS
CRAIG          CLOUDY    72  38  29 S32G49    30.15S
HAYDEN         NOT AVBL
MEEKER         TSTM      60  51  72 S12       30.22S
MOUNT WERNER   NOT AVBL
STEAMBOAT SPGS CLOUDY    68  45  42 CALM      30.22R
WALDEN         PTSUNNY   63  36  36 S17       30.30R
$$

COZ006>008-011-020100-
...WEST CENTRAL VALLEYS...

CITY           SKY/WX    TMP DP  RH WIND       PRES   REMARKS
GRAND JUNCTION MOSUNNY   84  47  27 W5        30.01F
MONTROSE       MOSUNNY   84  45  25 N5        30.11F
EAGLE          MOSUNNY   79  39  24 W8        30.19S
RIFLE          PTSUNNY   78  44  29 N21       30.10R
DELTA          MOSUNNY   88  41  18 CALM      30.05S
NUCLA          MOSUNNY   81  37  21 W9        30.15S
$$

COZ017>023-064>068-020100-
...SOUTHWEST COLORADO...

CITY           SKY/WX    TMP DP  RH WIND       PRES   REMARKS
DURANGO        MOSUNNY   80  40  23 SW10      30.19S
CORTEZ         SUNNY     82  43  25 SW12      30.13S
PAGOSA SPRINGS MOSUNNY   78  35  20 SW8       30.27S
TELLURIDE      CLOUDY    63  47  56 E6        30.40R
WOLF CREEK PAS CLOUDY    50  37  62 W7        30.62R
$$

COZ009-010-012-014-032>034-037-058>063-020100-
...CENTRAL COLORADO...

CITY           SKY/WX    TMP DP  RH WIND       PRES   REMARKS
ASPEN          MOSUNNY   76  42  29 N6        30.25F
BUENA VISTA    PTSUNNY   73  35  25 CALM      30.26R
COPPER MTN     CLOUDY    59  34  38 NW5       30.59S
BERTHOUD PASS  FAIR      46  34  61 N10G26    30.64S
COTTONWOOD PAS CLOUDY    64  36  34 S6        30.42S
GUNNISON       PTSUNNY   75  37  25 SW7       30.26S
KREMMLING      PTSUNNY   70  41  35 CALM      30.29S
LEADVILLE      PTSUNNY   62  33  33 NW7       30.40F
MONARCH PASS   CLOUDY    55  36  47 CALM      30.69S
SALIDA         PTSUNNY   75  36  24 S10G16    30.31R
SUNLIGHT       PTSUNNY   59  45  58 CALM      30.52F
WILKERSON PASS MOSUNNY   61  30  31 CALM      30.56S
$$

COZ069>075-020100-
...SAN LUIS VALLEY/SANGRE DE CRISTO MOUNTAINS...

CITY           SKY/WX    TMP DP  RH WIND       PRES   REMARKS
ALAMOSA        MOSUNNY   75  39  27 S7        30.24S
LA VETA PASS   MOSUNNY   64  32  29 S10G17    30.45S
SAGUACHE       DRIZZLE   61  50  67 NW12      30.34R
$$

COZ035-036-038>040-020100-
...NORTHERN COLORADO FRONT RANGE...

CITY           SKY/WX    TMP DP  RH WIND       PRES   REMARKS
DENVER INTL AP TSTM      74  49  41 NW15G26   30.09R
DMNS CITY PARK   N/A     84  39  20 N9G16     30.06S
AURORA         PTSUNNY   80  41  25 N15G24    30.08R
FRONT RANGE AP PTSUNNY   82  36  18 E3        30.08R
ERIE MUNI ARPT PTSUNNY   85  35  17 CALM      30.04F
BOULDER MUN AP PTSUNNY   82  41  23 NE5       30.06F
CENTENNIAL     PTSUNNY   82  38  20 W8        30.09S
BROOMFIELD     PTSUNNY   82  39  21 NW10      30.08S
FORT COLLINS   PTSUNNY   82  43  24 W13       30.02R
LONGMONT       PTSUNNY   85  42  21 W5        30.05F
$$

COZ041-046-047-076>085-087-088-020100-
...PIKES PEAK/PALMER DIVIDE AND SOUTHERN FOOTHILLS...

CITY           SKY/WX    TMP DP  RH WIND       PRES   REMARKS
COLO. SPRINGS  TSTM      64  53  67 N21       30.21R
A. F. ACADEMY  PTSUNNY   69  51  52 SE10      30.21R
ELLICOTT       PTSUNNY  N/A N/A N/A SW3       30.12R THUNDER
FALCON         LGT RAIN  66  47  51 MISG      30.26R
FORT CARSON    DRIZZLE   70  52  52 N24G31    30.13R
LIMON          SUNNY     84  41  21 CALM      30.07S
MONUMENT HILL  LGT RAIN  68  43  40 S23G29    30.23R
TRINIDAD       MOSUNNY   82  46  28 S17       30.08S
$$

COZ042>045-048>051-090-091-020100-
...NORTHEAST COLORADO...

CITY           SKY/WX    TMP DP  RH WIND       PRES   REMARKS
GREELEY ARPT   PTSUNNY   88  39  18 W6        30.00S
AKRON          SUNNY     89  34  14 NW5       30.01S
BURLINGTON     MOSUNNY   88  52  29 E9        29.99S
WRAY           CLOUDY    93  40  15 SE6       29.94S
STERLING       NOT AVBL
HOLYOKE        SUNNY     88  50  27 SE9       29.94F
FORT MORGAN    SUNNY     88  39  18 S9        29.99S
$$

COZ086-089-092>099-020100-
...SOUTHEAST COLORADO...

CITY           SKY/WX    TMP DP  RH WIND       PRES   REMARKS
PUEBLO         MOSUNNY   92  40  16 SE8       29.98S
LA JUNTA       MOSUNNY   89  52  28 SE12      29.97S
LAMAR          PTSUNNY   84  57  39 S6        29.94F
SPRINGFIELD      N/A     83  54  36 SE14      30.02R
$$




USA.gov is the U.S. government's official web portal to all federal, state and local government web resources and services.